Location: Brusselsch Zeekanaal
(50.8667°N, 4.3667°E)
Time: 13:15:52
(UTC+00:00)

Cosmos 1943 Rocket - Visible Passes

Search period start: 14 February 2026 00:00
Search period end: 24 February 2026 00:00
Orbit: 811 x 842 km, 71.0° (Epoch: 13 February)

Date Brightness Start Highest point End Pass type
(mag) Time Alt. Az. Time Alt. Az. Time Alt. Az.
14 Feb 4.9 02:37:59 10° N 02:37:59 10° N 02:38:08 10° N visible
14 Feb 4.4 06:04:49 10° N 06:08:41 19° NNE 06:12:32 10° ENE visible
15 Feb 4.5 05:45:16 10° N 05:48:55 17° NNE 05:52:34 10° ENE visible
16 Feb 4.5 05:25:43 10° N 05:29:08 16° NNE 05:32:34 10° ENE visible
17 Feb 4.6 05:06:09 10° N 05:09:22 15° NNE 05:12:34 10° ENE visible
18 Feb 4.6 04:46:37 10° N 04:49:35 14° NNE 04:52:32 10° ENE visible
19 Feb 4.7 04:27:05 10° N 04:29:47 13° NNE 04:32:29 10° NE visible
19 Feb 3.5 06:09:56 10° NNW 06:15:10 39° NE 06:20:26 10° ESE visible
20 Feb 4.7 04:07:33 10° N 04:09:58 13° NNE 04:12:25 10° NE visible
20 Feb 3.7 05:50:20 10° NNW 05:55:29 35° NE 06:00:38 10° ESE visible
21 Feb 4.8 03:48:01 10° N 03:50:10 12° NNE 03:52:19 10° NE visible
21 Feb 3.8 05:30:45 10° NNW 05:35:47 32° NE 05:40:48 10° ESE visible
22 Feb 4.8 03:28:31 10° N 03:30:21 11° NNE 03:32:11 10° NE visible
22 Feb 3.9 05:11:09 10° NNW 05:16:04 30° NE 05:20:58 10° ESE visible
23 Feb 4.9 03:09:02 10° N 03:10:32 11° NNE 03:12:02 10° NNE visible
23 Feb 4.1 04:51:34 10° NNW 04:56:20 27° NE 05:01:06 10° E visible
